| time (UTC) | temp F | wind direction | speed knots | gust knots | rain 1hr in | rain 24hr in | rain mn in | humidity % | barometer mb |
| 20260503071936 | 46 | 335 | 7.8 | 13.0 | 0.00 | 0.00 | 0.00 | 1012.6 | |
| 20260503071804 | 46 | 333 | 7.0 | 13.0 | 0.00 | 0.00 | 0.00 | 1012.6 | |
| 20260503070936 | 45 | 328 | 7.8 | 14.8 | 0.00 | 0.00 | 0.00 | 1012.6 | |
| 20260503070106 | 45 | 325 | 8.7 | 13.0 | 0.00 | 0.00 | 0.00 | 1012.9 | |
| 20260503054937 | 45 | 318 | 7.8 | 13.9 | 0.00 | 0.00 | 0.00 | 1013.2 | |
| 20260503054148 | 45 | 315 | 7.0 | 12.2 | 0.00 | 0.00 | 0.00 | 1013.6 | |
| 20260503053935 | 45 | 315 | 7.0 | 12.2 | 0.00 | 0.00 | 0.00 | 1013.6 | |
| 20260503053803 | 45 | 311 | 7.0 | 13.0 | 0.00 | 0.00 | 0.00 | 1013.6 | |
| 20260503053108 | 45 | 326 | 8.7 | 13.0 | 0.00 | 0.00 | 0.00 | 1013.6 | |
| 20260503052935 | 45 | 326 | 8.7 | 13.0 | 0.00 | 0.00 | 0.00 | 1013.6 | |
| 20260503052021 | 46 | 318 | 7.0 | 13.0 | 0.00 | 0.00 | 0.00 | 1013.6 | |
| 20260503051935 | 46 | 318 | 7.0 | 13.0 | 0.00 | 0.00 | 0.00 | 1013.6 | |
| 20260503051802 | 46 | 311 | 7.0 | 13.0 | 0.00 | 0.00 | 0.00 | 1013.6 | |
| 20260503051251 | 46 | 319 | 7.8 | 13.9 | 0.00 | 0.00 | 0.00 | 1013.6 | |
| 20260503050935 | 46 | 319 | 7.8 | 13.9 | 0.00 | 0.00 | 0.00 | 1013.6 | |
| 20260503050058 | 46 | 312 | 7.0 | 12.2 | 0.00 | 0.00 | 0.00 | 1013.6 | |
| 20260503045935 | 46 | 312 | 7.0 | 12.2 | 0.00 | 0.00 | 0.00 | 1013.6 | |
| 20260503045802 | 46 | 314 | 7.8 | 12.2 | 0.00 | 0.00 | 0.00 | 1013.6 | |
| 20260503045019 | 46 | 323 | 7.8 | 13.0 | 0.00 | 0.00 | 0.00 | 1013.6 | |
| 20260503044935 | 46 | 323 | 7.8 | 13.0 | 0.00 | 0.00 | 0.00 | 1013.6 | |
| 20260503044101 | 46 | 322 | 7.0 | 11.3 | 0.00 | 0.00 | 0.00 | 1013.6 | |
| 20260503043935 | 46 | 322 | 7.0 | 11.3 | 0.00 | 0.00 | 0.00 | 1013.6 | |
| 20260503043804 | 46 | 323 | 6.1 | 11.3 | 0.00 | 0.00 | 0.00 | 1013.6 | |
| 20260503043057 | 46 | 309 | 6.1 | 11.3 | 0.00 | 0.00 | 0.00 | 1013.6 | |
| 20260503042935 | 46 | 309 | 6.1 | 11.3 | 0.00 | 0.00 | 0.00 | 1013.6 | |
| 20260503042021 | 46 | 315 | 6.1 | 10.4 | 0.00 | 0.00 | 0.00 | 1013.9 | |
| 20260503041935 | 46 | 315 | 6.1 | 10.4 | 0.00 | 0.00 | 0.00 | 1013.9 | |
| 20260503041804 | 46 | 312 | 7.0 | 10.4 | 0.00 | 0.00 | 0.00 | 1013.9 | |
| 20260503041108 | 46 | 322 | 7.0 | 11.3 | 0.00 | 0.00 | 0.00 | 1013.9 | |
| 20260503040934 | 46 | 322 | 7.0 | 11.3 | 0.00 | 0.00 | 0.00 | 1013.9 | |
| 20260503040056 | 47 | 312 | 7.0 | 11.3 | 0.00 | 0.00 | 0.00 | 1014.3 | |
| 20260503035934 | 47 | 312 | 7.0 | 11.3 | 0.00 | 0.00 | 0.00 | 1014.3 | |
| 20260503035803 | 47 | 319 | 7.0 | 11.3 | 0.00 | 0.00 | 0.00 | 1014.3 | |
| 20260503034936 | 47 | 314 | 6.1 | 9.6 | 0.00 | 0.00 | 0.00 | 1014.3 | |
| 20260503034215 | 47 | 315 | 4.3 | 8.7 | 0.00 | 0.00 | 0.00 | 1014.3 | |
| 20260503033936 | 47 | 315 | 4.3 | 8.7 | 0.00 | 0.00 | 0.00 | 1014.3 | |
| 20260503033803 | 47 | 307 | 6.1 | 8.7 | 0.00 | 0.00 | 0.00 | 1014.3 | |
| 20260503033055 | 47 | 305 | 4.3 | 9.6 | 0.00 | 0.00 | 0.00 | 1014.3 | |
| 20260503032934 | 47 | 305 | 4.3 | 9.6 | 0.00 | 0.00 | 0.00 | 1014.3 | |
| 20260503032013 | 48 | 305 | 6.1 | 8.7 | 0.00 | 0.00 | 0.00 | 1014.6 | |
| 20260503031934 | 48 | 305 | 6.1 | 8.7 | 0.00 | 0.00 | 0.00 | 1014.6 | |
| 20260503031803 | 47 | 309 | 5.2 | 8.7 | 0.00 | 0.00 | 0.00 | 1014.6 | |
| 20260503031248 | 48 | 315 | 6.1 | 8.7 | 0.00 | 0.00 | 0.00 | 1014.6 | |
| 20260503030935 | 48 | 315 | 6.1 | 8.7 | 0.00 | 0.00 | 0.00 | 1014.6 | |
| 20260503030229 | 48 | 309 | 5.2 | 9.6 | 0.00 | 0.00 | 0.00 | 1014.6 | |
| 20260503025935 | 48 | 309 | 5.2 | 9.6 | 0.00 | 0.00 | 0.00 | 1014.6 | |
| 20260503025804 | 48 | 315 | 6.1 | 9.6 | 0.00 | 0.00 | 0.00 | 1014.6 | |
| 20260503024936 | 48 | 309 | 6.1 | 9.6 | 0.00 | 0.00 | 0.00 | 1014.6 | |
| 20260503024209 | 48 | 316 | 5.2 | 8.7 | 0.00 | 0.00 | 0.00 | 1014.6 | |
| 20260503023935 | 48 | 316 | 5.2 | 8.7 | 0.00 | 0.00 | 0.00 | 1014.6 | |
| 20260503023804 | 48 | 315 | 5.2 | 8.7 | 0.00 | 0.00 | 0.00 | 1014.6 | |
| 20260503023341 | 48 | 332 | 4.3 | 7.8 | 0.00 | 0.00 | 0.00 | 1014.6 | |
| 20260503023247 | 48 | 332 | 4.3 | 7.8 | 0.00 | 0.00 | 0.00 | 1014.6 | |
| 20260503022935 | 48 | 332 | 4.3 | 7.8 | 0.00 | 0.00 | 0.00 | 1014.6 | |
| 20260503022246 | 49 | 316 | 4.3 | 7.8 | 0.00 | 0.00 | 0.00 | 1014.6 | |
| 20260503021936 | 49 | 308 | 4.3 | 10.4 | 0.00 | 0.00 | 0.00 | 1014.6 | |
| 20260503021804 | 49 | 329 | 3.5 | 7.8 | 0.00 | 0.00 | 0.00 | 1014.6 | |
| 20260503020934 | 49 | 308 | 4.3 | 10.4 | 0.00 | 0.00 | 0.00 | 1014.6 | |
| 20260503015936 | 49 | 314 | 4.3 | 8.7 | 0.00 | 0.00 | 0.00 | 1014.6 | |
| 20260503015803 | 49 | 302 | 4.3 | 8.7 | 0.00 | 0.00 | 0.00 | 1014.6 | |
| 20260503015217 | 49 | 312 | 6.1 | 8.7 | 0.00 | 0.00 | 0.00 | 1014.6 | |
| 20260503014934 | 49 | 312 | 6.1 | 8.7 | 0.00 | 0.00 | 0.00 | 1014.6 | |
| 20260503013936 | 50 | 312 | 4.3 | 7.0 | 0.00 | 0.00 | 0.00 | 1014.6 | |
| 20260503013803 | 50 | 316 | 3.5 | 7.0 | 0.00 | 0.00 | 0.00 | 1014.6 | |
| 20260503012938 | 50 | 321 | 3.5 | 7.8 | 0.00 | 0.00 | 0.00 | 1014.6 | |
| 20260503011803 | 51 | 312 | 3.5 | 7.8 | 0.00 | 0.00 | 0.00 | 1014.6 | |
| 20260503011715 | 51 | 312 | 4.3 | 7.8 | 0.00 | 0.00 | 0.00 | 1014.6 | |
| 20260503010934 | 51 | 312 | 4.3 | 7.8 | 0.00 | 0.00 | 0.00 | 1014.6 | |
| 20260503005803 | 52 | 322 | 3.5 | 7.8 | 0.00 | 0.00 | 0.00 | 1014.6 | |
| 20260503003803 | 54 | 325 | 5.2 | 9.6 | 0.00 | 0.00 | 0.00 | 1014.6 | |
| 20260503001937 | 55 | 335 | 3.5 | 12.2 | 0.00 | 0.00 | 0.00 | 1014.6 | |
| 20260503001802 | 55 | 330 | 4.3 | 12.2 | 0.00 | 0.00 | 0.00 | 1014.6 | |
| 20260503000937 | 55 | 330 | 2.6 | 10.4 | 0.00 | 0.00 | 0.00 | 1014.6 | |
| 20260502235937 | 56 | 339 | 5.2 | 12.2 | 0.00 | 0.00 | 0.00 | 1014.9 | |
| 20260502235802 | 56 | 311 | 6.1 | 12.2 | 0.00 | 0.00 | 0.00 | 1014.9 | |
| 20260502234935 | 57 | 326 | 5.2 | 13.9 | 0.00 | 0.00 | 0.00 | 1014.9 | |
| 20260502233937 | 60 | 332 | 5.2 | 13.9 | 0.00 | 0.00 | 0.00 | 1014.9 | |
| 20260502233804 | 60 | 319 | 5.2 | 13.9 | 0.00 | 0.00 | 0.00 | 1014.9 | |
| 20260502232936 | 60 | 330 | 7.0 | 12.2 | 0.00 | 0.00 | 0.00 | 1014.9 | |
| 20260502231937 | 59 | 316 | 8.7 | 13.0 | 0.00 | 0.00 | 0.00 | 1015.3 | |
| 20260502231804 | 59 | 347 | 6.1 | 17.4 | 0.00 | 0.00 | 0.00 | 1015.3 | |
| 20260502230936 | 58 | 332 | 8.7 | 17.4 | 0.00 | 0.00 | 0.00 | 1014.9 | |
| 20260502225936 | 58 | 316 | 5.2 | 13.0 | 0.00 | 0.00 | 0.00 | 1014.9 | |
| 20260502225803 | 58 | 339 | 5.2 | 13.9 | 0.00 | 0.00 | 0.00 | 1015.3 | |
| 20260502224936 | 58 | 330 | 9.6 | 13.9 | 0.00 | 0.00 | 0.00 | 1015.3 | |
| 20260502223936 | 58 | 329 | 5.2 | 16.5 | 0.00 | 0.00 | 0.00 | 1015.3 | |
| 20260502223803 | 58 | 332 | 6.1 | 16.5 | 0.00 | 0.00 | 0.00 | 1015.3 | |
| 20260502222936 | 58 | 3 | 6.1 | 12.2 | 0.00 | 0.00 | 0.00 | 1015.3 | |
| 20260502221936 | 57 | 10 | 7.0 | 12.2 | 0.00 | 0.00 | 0.00 | 1015.3 | |
| 20260502221803 | 58 | 6 | 7.8 | 13.9 | 0.00 | 0.00 | 0.00 | 1015.3 | |
| 20260502220938 | 58 | 8 | 7.0 | 18.2 | 0.00 | 0.00 | 0.00 | 1015.6 | |
| 20260502215937 | 59 | 3 | 7.8 | 17.4 | 0.00 | 0.00 | 0.00 | 1015.6 | |
| 20260502215803 | 59 | 325 | 7.0 | 17.4 | 0.00 | 0.00 | 0.00 | 1015.6 | |
| 20260502215709 | 57 | 305 | 7.0 | 15.6 | 0.00 | 0.00 | 0.00 | 1015.6 | |
| 20260502214937 | 57 | 305 | 7.0 | 15.6 | 0.00 | 0.00 | 0.00 | 1015.6 | |
| 20260502214710 | 57 | 332 | 10.4 | 17.4 | 0.00 | 0.00 | 0.00 | 1016.0 | |
| 20260502213937 | 57 | 332 | 10.4 | 17.4 | 0.00 | 0.00 | 0.00 | 1016.0 | |
| 20260502213803 | 58 | 25 | 7.0 | 17.4 | 0.00 | 0.00 | 0.00 | 1016.0 | |
| 20260502213530 | 58 | 309 | 4.3 | 15.6 | 0.00 | 0.00 | 0.00 | 1016.0 | |
| 20260502212937 | 58 | 309 | 4.3 | 15.6 | 0.00 | 0.00 | 0.00 | 1016.0 | |
| 20260502211940 | 59 | 330 | 8.7 | 14.8 | 0.00 | 0.00 | 0.00 | 1016.0 | |
| 20260502211802 | 59 | 342 | 8.7 | 14.8 | 0.00 | 0.00 | 0.00 | 1016.0 | |
| 20260502210937 | 59 | 8 | 7.0 | 13.0 | 0.00 | 0.00 | 0.00 | 1016.3 | |
| 20260502205937 | 57 | 21 | 7.0 | 14.8 | 0.00 | 0.00 | 0.00 | 1016.3 | |
| 20260502205802 | 58 | 347 | 6.1 | 14.8 | 0.00 | 0.00 | 0.00 | 1016.3 | |
| 20260502204937 | 57 | 330 | 8.7 | 16.5 | 0.00 | 0.00 | 0.00 | 1016.3 | |
| 20260502203936 | 57 | 311 | 9.6 | 15.6 | 0.00 | 0.00 | 0.00 | 1016.3 | |
| 20260502203803 | 57 | 322 | 7.0 | 13.9 | 0.00 | 0.00 | 0.00 | 1016.3 | |
| 20260502202937 | 60 | 349 | 6.1 | 13.0 | 0.00 | 0.00 | 0.00 | 1016.6 | |
| 20260502201936 | 60 | 326 | 6.1 | 11.3 | 0.00 | 0.00 | 0.00 | 1016.6 | |
| 20260502201803 | 59 | 338 | 5.2 | 15.6 | 0.00 | 0.00 | 0.00 | 1016.6 | |
| 20260502200937 | 58 | 302 | 8.7 | 18.2 | 0.00 | 0.00 | 0.00 | 1017.0 | |
| 20260502195936 | 57 | 352 | 7.8 | 14.8 | 0.00 | 0.00 | 0.00 | 1017.0 | |
| 20260502195804 | 57 | 311 | 7.0 | 13.0 | 0.00 | 0.00 | 0.00 | 1017.0 | |
| 20260502194935 | 57 | 332 | 7.0 | 17.4 | 0.00 | 0.00 | 0.00 | 1017.0 | |
| 20260502194922 | 56 | 338 | 6.1 | 13.9 | 0.00 | 0.00 | 0.00 | 1017.3 | |
| 20260502193936 | 58 | 339 | 6.1 | 13.0 | 0.00 | 0.00 | 0.00 | 1017.0 | |
| 20260502193803 | 58 | 314 | 6.1 | 13.0 | 0.00 | 0.00 | 0.00 | 1017.3 | |
| 20260502192934 | 56 | 338 | 6.1 | 13.9 | 0.00 | 0.00 | 0.00 | 1017.3 | |
| 20260502192213 | 56 | 326 | 7.0 | 13.9 | 0.00 | 0.00 | 0.00 | 1017.3 | |
| 20260502191936 | 56 | 326 | 7.0 | 13.9 | 0.00 | 0.00 | 0.00 | 1017.3 | |
| 20260502191803 | 56 | 311 | 7.0 | 13.9 | 0.00 | 0.00 | 0.00 | 1017.3 | |
| 20260502190936 | 57 | 298 | 4.3 | 13.9 | 0.00 | 0.00 | 0.00 | 1017.7 | |
| 20260502190212 | 57 | 42 | 7.8 | 13.9 | 0.00 | 0.00 | 0.00 | 1017.7 | |
| 20260502185936 | 56 | 39 | 11.3 | 14.8 | 0.00 | 0.00 | 0.00 | 1017.7 | |
| 20260502185803 | 56 | 91 | 6.1 | 13.9 | 0.00 | 0.00 | 0.00 | 1017.7 | |
| 20260502184939 | 57 | 42 | 7.8 | 13.9 | 0.00 | 0.00 | 0.00 | 1017.7 | |
| 20260502183937 | 57 | 330 | 6.1 | 11.3 | 0.00 | 0.00 | 0.00 | 1018.0 | |
| 20260502183803 | 56 | 349 | 7.0 | 11.3 | 0.00 | 0.00 | 0.00 | 1018.0 | |
| 20260502183530 | 56 | 304 | 5.2 | 17.4 | 0.00 | 0.00 | 0.00 | 1018.0 | |
| 20260502182940 | 55 | 323 | 6.1 | 12.2 | 0.00 | 0.00 | 0.00 | 1018.3 | |
| 20260502182937 | 56 | 304 | 5.2 | 17.4 | 0.00 | 0.00 | 0.00 | 1018.0 | |
| 20260502181939 | 55 | 323 | 6.1 | 12.2 | 0.00 | 0.00 | 0.00 | 1018.3 | |
| 20260502181803 | 56 | 326 | 4.3 | 12.2 | 0.00 | 0.00 | 0.00 | 1018.3 | |
| 20260502180936 | 56 | 218 | 6.1 | 12.2 | 0.00 | 0.00 | 0.00 | 1018.3 | |
| 20260502180501 | 55 | 291 | 7.8 | 13.0 | 0.00 | 0.00 | 0.00 | 1018.3 | |
| 20260502170500 | 55 | 159 | 10.4 | 15.6 | 0.00 | 0.00 | 0.00 | 1018.7 | |
| 20260502164050 | 52 | 332 | 7.8 | 13.9 | 0.00 | 0.00 | 0.00 | 1019.0 | |
| 20260502163935 | 52 | 332 | 7.8 | 13.9 | 0.00 | 0.00 | 0.00 | 1019.0 | |
| 20260502163803 | 53 | 14 | 7.8 | 13.9 | 0.00 | 0.00 | 0.00 | 1019.0 | |
| 20260502163054 | 54 | 281 | 8.7 | 17.4 | 0.00 | 0.00 | 0.00 | 1019.0 | |
| 20260502162935 | 54 | 281 | 8.7 | 17.4 | 0.00 | 0.00 | 0.00 | 1019.0 | |
| 20260502162057 | 53 | 200 | 12.2 | 15.6 | 0.00 | 0.00 | 0.00 | 1019.0 | |
| 20260502161937 | 53 | 200 | 12.2 | 15.6 | 0.00 | 0.00 | 0.00 | 1019.0 | |
| 20260502161803 | 53 | 158 | 7.8 | 12.2 | 0.00 | 0.00 | 0.00 | 1019.0 | |
| 20260502161459 | 54 | 302 | 6.1 | 14.8 | 0.00 | 0.00 | 0.00 | 1019.3 | |
| 20260502160936 | 54 | 302 | 6.1 | 14.8 | 0.00 | 0.00 | 0.00 | 1019.3 | |
| 20260502160459 | 53 | 188 | 9.6 | 12.2 | 0.00 | 0.00 | 0.00 | 1019.3 | |
| 20260502152137 | 53 | 315 | 4.3 | 9.6 | 0.00 | 0.00 | 0.00 | 1019.7 | |
| 20260502151937 | 53 | 315 | 4.3 | 9.6 | 0.00 | 0.00 | 0.00 | 1019.7 | |
| 20260502151804 | 53 | 314 | 5.2 | 9.6 | 0.00 | 0.00 | 0.00 | 1019.7 | |
| 20260502151710 | 52 | 326 | 7.0 | 9.6 | 0.00 | 0.00 | 0.00 | 1019.3 | |
| 20260502150936 | 52 | 326 | 7.0 | 9.6 | 0.00 | 0.00 | 0.00 | 1019.3 | |
| 20260502123803 | 41 | 318 | 3.5 | 7.8 | 0.00 | 0.00 | 0.00 | 1020.0 | |
| 20260502123024 | 41 | 308 | 3.5 | 7.8 | 0.00 | 0.00 | 0.00 | 1020.0 | |
| 20260502122937 | 41 | 308 | 3.5 | 7.8 | 0.00 | 0.00 | 0.00 | 1020.0 | |
| 20260502122024 | 39 | 322 | 5.2 | 7.0 | 0.00 | 0.00 | 0.00 | 1020.0 | |
| 20260502121939 | 39 | 322 | 5.2 | 7.0 | 0.00 | 0.00 | 0.00 | 1020.0 | |
| 20260502121803 | 39 | 315 | 6.1 | 7.0 | 0.00 | 0.00 | 0.00 | 1020.0 | |
| 20260502121025 | 39 | 326 | 4.3 | 7.0 | 0.00 | 0.00 | 0.00 | 1020.0 | |
| 20260502120937 | 39 | 326 | 4.3 | 7.0 | 0.00 | 0.00 | 0.00 | 1020.0 | |
| 20260502115803 | 39 | 308 | 3.5 | 7.0 | 0.00 | 0.00 | 0.00 | 1019.7 | |
| 20260502114021 | 39 | 308 | 4.3 | 7.8 | 0.00 | 0.00 | 0.00 | 1019.7 | |
| 20260502113936 | 39 | 308 | 4.3 | 7.8 | 0.00 | 0.00 | 0.00 | 1019.7 | |
| 20260502113802 | 39 | 312 | 3.5 | 7.8 | 0.00 | 0.00 | 0.00 | 1019.7 | |
| 20260502113028 | 39 | 316 | 4.3 | 7.8 | 0.00 | 0.00 | 0.00 | 1019.7 | |
| 20260502112936 | 39 | 316 | 4.3 | 7.8 | 0.00 | 0.00 | 0.00 | 1019.7 | |
| 20260502112014 | 37 | 298 | 4.3 | 6.1 | 0.00 | 0.00 | 0.00 | 1019.7 | |
| 20260502111936 | 37 | 298 | 4.3 | 6.1 | 0.00 | 0.00 | 0.00 | 1019.7 | |
| 20260502111802 | 37 | 302 | 3.5 | 6.1 | 0.00 | 0.00 | 0.00 | 1019.7 | |
| 20260502111018 | 36 | 318 | 2.6 | 6.1 | 0.00 | 0.00 | 0.00 | 1019.7 | |
| 20260502110935 | 36 | 318 | 2.6 | 6.1 | 0.00 | 0.00 | 0.00 | 1019.7 | |
| 20260502110021 | 35 | 314 | 2.6 | 7.0 | 0.00 | 0.00 | 0.00 | 1019.7 | |
| 20260502105935 | 35 | 314 | 2.6 | 7.0 | 0.00 | 0.00 | 0.00 | 1019.7 | |
| 20260502105804 | 35 | 314 | 4.3 | 7.0 | 0.00 | 0.00 | 0.00 | 1019.7 | |
| 20260502104941 | 35 | 316 | 3.5 | 6.1 | 0.00 | 0.00 | 0.00 | 1019.7 | |
| 20260502104008 | 35 | 315 | 2.6 | 5.2 | 0.00 | 0.00 | 0.00 | 1019.7 | |
| 20260502103934 | 35 | 315 | 2.6 | 5.2 | 0.00 | 0.00 | 0.00 | 1019.7 | |
| 20260502103804 | 35 | 316 | 2.6 | 5.2 | 0.00 | 0.00 | 0.00 | 1019.7 | |
| 20260502103014 | 35 | 312 | 2.6 | 6.1 | 0.00 | 0.00 | 0.00 | 1019.3 | |
| 20260502102935 | 35 | 312 | 2.6 | 6.1 | 0.00 | 0.00 | 0.00 | 1019.3 | |
| 20260502102043 | 34 | 314 | 3.5 | 5.2 | 0.00 | 0.00 | 0.00 | 1019.3 | |
| 20260502101937 | 34 | 314 | 3.5 | 5.2 | 0.00 | 0.00 | 0.00 | 1019.3 | |
| 20260502101803 | 34 | 315 | 2.6 | 5.2 | 0.00 | 0.00 | 0.00 | 1019.3 | |
| 20260502101015 | 34 | 316 | 3.5 | 6.1 | 0.00 | 0.00 | 0.00 | 1019.3 | |
| 20260502100934 | 34 | 316 | 3.5 | 6.1 | 0.00 | 0.00 | 0.00 | 1019.3 | |
| 20260502091006 | 34 | 314 | 2.6 | 4.3 | 0.00 | 0.00 | 0.00 | 1019.3 | |
| 20260502090934 | 34 | 314 | 2.6 | 4.3 | 0.00 | 0.00 | 0.00 | 1019.3 |